Miscellaneous Local Product
Issued by NWS Hastings, NE

Home | Current Version | Previous Version | Text Only | Print | Product List | Glossary On
Versions: 1 2 3 4 5 6 7 8 9 10 11 12 13 14 15 16 17 18 19 20 21 22 23 24 25 26 27 28 29 30 31 32 33 34 35 36 37 38 39 40 41 42 43 44 45 46 47 48 49 50
000
AXUS43 KGID 061402
MISGRI

GID CWA HOURLY WEATHER ROUNDUP
NATIONAL WEATHER SERVICE HASTINGS NE
900 AM CDT MON JUL 06 2015

NOTE: "FAIR" INDICATES FEW OR NO CLOUDS BELOW 12,000 FEET WITH NO
SIGNIFICANT WEATHER AND/OR OBSTRUCTIONS TO VISIBILITY.

...SOUTH CENTRAL NEBRASKA...

CITY           SKY/WX    TMP DP  RH WIND       PRES   REMARKS
GRAND ISLAND   CLOUDY    72  69  90 N12       29.93R
HASTINGS       CLOUDY    71  69  93 N8        29.91R
KEARNEY        CLOUDY    70  66  88 N12       29.94S
ORD            CLOUDY    67  65  93 N12G21    29.97R
YORK           LGT RAIN  70  68  94 N7        29.89S
AURORA         CLOUDY    71  71 100 N5        29.91R
LEXINGTON      CLOUDY    68  64  87 N18G26    29.98R
HOLDREGE       LGT RAIN  68  66  92 N10       29.94R
HEBRON         CLOUDY    76  67  75 E5        29.85F

...NEBRASKA PANHANDLE...

CITY           SKY/WX    TMP DP  RH WIND       PRES   REMARKS
CHADRON        CLOUDY    60  57  89 N7        30.20R FOG
ALLIANCE       CLOUDY    59  56  89 N14       30.18R FOG
SCOTTSBLUFF    CLOUDY    60  55  83 NE10      30.21R HAZE
SIDNEY         CLOUDY    59  57  93 NE17G25   30.19R

...WESTERN AND NORTH CENTRAL NEBRASKA...

CITY           SKY/WX    TMP DP  RH WIND       PRES   REMARKS
VALENTINE      CLOUDY    64  60  87 N10       30.10R FOG
AINSWORTH      DRIZZLE   63  63 100 N14G24    30.08R
ONEILL         RAIN      66  65  98 N12       30.01R
BROKEN BOW     CLOUDY    67  63  87 N22G31    30.00R
IMPERIAL       CLOUDY    64  60  87 N21G28    30.08R
NORTH PLATTE   CLOUDY    65  60  84 N12       30.05R
MCCOOK         CLOUDY    67  63  87 N18       29.99R

...EASTERN NEBRASKA...

CITY           SKY/WX    TMP DP  RH WIND       PRES   REMARKS
NORFOLK        LGT RAIN  70  69  97 W5        29.91R
SO SIOUX CITY  CLOUDY    72  69  90 SW3       29.84F
TEKAMAH        CLOUDY    73  71  93 SW3       29.86R
ALBION         LGT RAIN  69  67  93 NW7       29.93F
OMAHA EPPLEY   LGT RAIN  74  71  91 N5        29.87R
OFFUTT AFB     CLOUDY    74  72  93 NE2       29.87R
MILLARD        LGT RAIN  73  71  92 CALM      29.87R
LINCOLN        CLOUDY    74  71  91 CALM      29.87R
NEBRASKA CITY  CLOUDY    76  68  77 E3        29.87F
BEATRICE       CLOUDY    78  69  74 E5        29.87F
FALLS CITY     CLOUDY    79  72  79 S9        29.87F

...NORTHERN KANSAS...

CITY           SKY/WX    TMP DP  RH WIND       PRES   REMARKS
GOODLAND       CLOUDY    65  61  87 N23G31    30.05R
HILL CITY      LGT RAIN  72  68  87 N16       29.92R
NORTON         LGT RAIN  68  64  88 N16       29.94R
PHILLIPSBURG   LGT RAIN  75  70  83 N16       29.88R
SMITH CENTER   RAIN      75  70  83 CALM      29.88R
HAYS           MOSUNNY   82  64  54 W12       29.86R
RUSSELL        MOSUNNY   80  67  64 S8        29.84S
CONCORDIA      MOSUNNY   80  69  69 S8        29.85F
SALINA         MOSUNNY   83  68  60 S15       29.85S
TOPEKA         CLOUDY    79  72  79 S7        29.90R



USA.gov is the U.S. government's official web portal to all federal, state and local government web resources and services.